TimeEST,TemperatureF,Dew PointF,Humidity,Sea Level PressureIn,VisibilityMPH,Wind Direction,Wind SpeedMPH,Gust SpeedMPH,PrecipitationIn,Events,Conditions,WindDirDegrees,DateUTC
12:55 AM,54.9,34.9,47,30.09,10.0,North,9.2,-,N/A,,Overcast,360,2012-12-12 05:55:00
1:55 AM,53.1,35.1,50,30.09,10.0,NNE,9.2,-,N/A,,Partly Cloudy,20,2012-12-12 06:55:00
2:55 AM,52.9,33.6,48,30.12,10.0,NNE,5.8,-,N/A,,Overcast,30,2012-12-12 07:55:00
3:55 AM,52.2,33.3,49,30.13,10.0,NNE,6.9,-,N/A,,Overcast,30,2012-12-12 08:55:00
4:55 AM,51.1,32.7,50,30.13,10.0,NNE,8.1,-,N/A,,Overcast,30,2012-12-12 09:55:00
5:55 AM,49.6,32.2,51,30.13,10.0,North,9.2,-,N/A,,Clear,10,2012-12-12 10:55:00
6:52 AM,50.0,33.8,54,30.17,10.0,North,8.1,-,N/A,Rain,Light Rain,10,2012-12-12 11:52:00
6:55 AM,49.3,33.6,55,30.16,10.0,NNE,8.1,-,0.00,Rain,Light Rain,20,2012-12-12 11:55:00
7:07 AM,48.2,33.8,58,30.16,10.0,NNE,11.5,-,N/A,,Mostly Cloudy,30,2012-12-12 12:07:00
7:11 AM,48.2,33.8,58,30.16,10.0,NE,10.4,-,N/A,Rain,Light Rain,40,2012-12-12 12:11:00
7:53 AM,46.4,37.4,71,30.17,10.0,NNE,11.5,-,N/A,Rain,Light Rain,20,2012-12-12 12:53:00
7:55 AM,47.1,37.8,70,30.17,10.0,NNE,11.5,-,0.00,Rain,Light Rain,30,2012-12-12 12:55:00
8:13 AM,46.4,39.2,76,30.17,10.0,NNE,10.4,-,N/A,,Overcast,20,2012-12-12 13:13:00
8:19 AM,46.4,37.4,71,30.15,10.0,NNE,13.8,-,N/A,,Overcast,30,2012-12-12 13:19:00
8:55 AM,47.5,37.9,69,30.19,10.0,NNE,10.4,-,0.00,,Overcast,30,2012-12-12 13:55:00
9:02 AM,48.2,37.4,66,30.19,10.0,NNE,11.5,-,N/A,Rain,Light Rain,30,2012-12-12 14:02:00
9:10 AM,48.2,37.4,66,30.18,10.0,NE,12.7,-,N/A,,Overcast,40,2012-12-12 14:10:00
9:30 AM,48.2,39.2,71,30.20,10.0,NNE,10.4,-,N/A,,Overcast,30,2012-12-12 14:30:00
10:00 AM,50.0,39.2,66,30.20,10.0,NE,13.8,-,N/A,,Overcast,50,2012-12-12 15:00:00
10:55 AM,49.5,41.0,73,30.21,10.0,NE,16.1,-,N/A,,Overcast,50,2012-12-12 15:55:00
11:55 AM,49.8,41.2,72,30.19,10.0,NE,16.1,-,N/A,,Overcast,40,2012-12-12 16:55:00
12:55 PM,49.8,40.3,70,30.18,10.0,NNE,15.0,-,N/A,,Overcast,30,2012-12-12 17:55:00
1:20 PM,50.0,39.2,66,30.19,10.0,NE,16.1,-,N/A,,Overcast,40,2012-12-12 18:20:00
1:55 PM,50.4,38.8,65,30.18,10.0,NE,16.1,-,N/A,,Overcast,40,2012-12-12 18:55:00
2:14 PM,50.0,39.2,66,30.19,10.0,NE,11.5,-,N/A,,Light Drizzle,40,2012-12-12 19:14:00
2:23 PM,50.0,39.2,66,30.20,10.0,NNE,13.8,-,N/A,Rain,Light Rain,30,2012-12-12 19:23:00
2:55 PM,48.9,41.5,76,30.19,10.0,NE,11.5,-,0.01,Rain,Light Rain,40,2012-12-12 19:55:00
3:55 PM,47.8,41.7,79,30.19,7.0,NE,9.2,-,0.02,Rain,Rain,50,2012-12-12 20:55:00
4:06 PM,48.2,42.8,82,30.19,4.0,NE,9.2,-,N/A,Rain,Light Rain,40,2012-12-12 21:06:00
4:51 PM,46.4,41.0,81,30.20,7.0,NNE,15.0,-,N/A,Rain,Light Rain,30,2012-12-12 21:51:00
4:55 PM,46.0,40.8,82,30.20,8.0,NNE,16.1,-,0.04,Rain,Light Rain,30,2012-12-12 21:55:00
4:57 PM,46.4,41.0,81,30.19,8.0,NNE,16.1,-,N/A,Rain,Light Rain,20,2012-12-12 21:57:00
5:03 PM,46.4,41.0,81,30.20,10.0,NNE,13.8,-,N/A,Rain,Light Rain,20,2012-12-12 22:03:00
5:41 PM,44.6,41.0,87,30.22,5.0,NE,12.7,-,N/A,Rain,Rain,50,2012-12-12 22:41:00
5:42 PM,44.6,41.0,87,30.22,5.0,NE,11.5,-,N/A,Rain,Rain,50,2012-12-12 22:42:00
5:44 PM,44.6,41.0,87,30.22,5.0,NE,11.5,-,N/A,Rain,Rain,50,2012-12-12 22:44:00
5:45 PM,44.6,41.0,87,30.22,5.0,NE,10.4,-,N/A,Rain,Rain,50,2012-12-12 22:45:00
5:48 PM,44.6,41.0,87,30.22,5.0,ENE,12.7,-,N/A,Rain,Rain,60,2012-12-12 22:48:00
5:53 PM,44.6,41.0,87,30.22,5.0,ENE,11.5,-,N/A,Rain,Rain,60,2012-12-12 22:53:00
5:55 PM,44.4,40.3,85,30.22,5.0,ENE,10.4,-,0.05,Rain,Rain,60,2012-12-12 22:55:00
5:58 PM,44.6,41.0,87,30.22,6.0,ENE,10.4,-,N/A,Rain,Rain,70,2012-12-12 22:58:00
6:32 PM,44.6,41.0,87,30.23,8.0,NNE,11.5,-,N/A,Rain,Rain,30,2012-12-12 23:32:00
6:55 PM,43.9,39.9,86,30.22,7.0,NE,16.1,-,0.06,Rain,Rain,40,2012-12-12 23:55:00
6:58 PM,44.6,39.2,81,30.23,7.0,NE,15.0,-,N/A,Rain,Rain,40,2012-12-12 23:58:00
7:14 PM,42.8,39.2,87,30.22,10.0,NE,15.0,-,N/A,Rain,Light Rain,40,2012-12-13 00:14:00
7:19 PM,42.8,39.2,87,30.22,10.0,NE,13.8,-,N/A,Rain,Light Rain,40,2012-12-13 00:19:00
7:25 PM,42.8,39.2,87,30.22,10.0,NE,16.1,-,N/A,Rain,Light Rain,40,2012-12-13 00:25:00
7:33 PM,42.8,39.2,87,30.23,10.0,NE,12.7,-,N/A,Rain,Light Rain,40,2012-12-13 00:33:00
7:55 PM,43.0,38.8,85,30.24,8.0,NE,12.7,-,0.05,Rain,Rain,40,2012-12-13 00:55:00
8:12 PM,42.8,39.2,87,30.22,7.0,NE,16.1,-,N/A,Rain,Rain,50,2012-12-13 01:12:00
8:15 PM,42.8,39.2,87,30.21,7.0,NE,17.3,-,N/A,Rain,Rain,50,2012-12-13 01:15:00
8:16 PM,42.8,39.2,87,30.21,7.0,NE,18.4,-,N/A,Rain,Rain,50,2012-12-13 01:16:00
8:17 PM,42.8,39.2,87,30.21,7.0,NE,18.4,-,N/A,Rain,Rain,50,2012-12-13 01:17:00
8:18 PM,42.8,39.2,87,30.20,7.0,NE,16.1,-,N/A,Rain,Rain,50,2012-12-13 01:18:00
8:28 PM,42.8,39.2,87,30.21,7.0,ENE,15.0,-,N/A,Rain,Rain,60,2012-12-13 01:28:00
8:33 PM,42.8,39.2,87,30.21,7.0,ENE,16.1,-,N/A,Rain,Rain,60,2012-12-13 01:33:00
8:35 PM,42.8,39.2,87,30.21,7.0,NE,16.1,-,N/A,Rain,Rain,50,2012-12-13 01:35:00
8:55 PM,42.3,38.3,86,30.20,7.0,ENE,15.0,23.0,0.08,Rain,Rain,60,2012-12-13 01:55:00
9:32 PM,41.0,37.4,87,30.21,10.0,ENE,15.0,-,N/A,Rain,Light Rain,60,2012-12-13 02:32:00